Voltar ao catálogo

SeeMe

AtivoCiênciaSSO
NORAD 43771·PAYLOAD·🇺🇸 United States

Lançado Dec 3, 2018 de Vandenberg Space Force Base

Loading…

Próximas Passagens (próximas 24 horas)

TLE

AtualizadoSource: Space-Track

Época: Sep 14, 2026, 02:56 UTC

1 43771U 18099P   26257.12243148  .00016833  00000-0  46276-3 0  9995
2 43771  97.4151 321.4445 0006767 334.4847  25.6062 15.37254611427192

Acompanhe SeeMe em tempo real com AllMySat

Download on the App Store